Regional Weather Roundup
Issued by NWS

Home | Current Version | Previous Version | Text Only | Print | Product List | Glossary On
Versions: 1 2 3 4 5 6 7 8 9 10 11 12 13 14 15 16 17 18 19 20 21 22 23 24 25 26 27 28 29 30 31 32 33 34 35 36 37 38 39 40 41 42 43 44 45 46 47 48 49 50
000
ASUS44 KBMX 261410
RWRAL

ALABAMA REGIONAL WEATHER ROUNDUP
NATIONAL WEATHER SERVICE BIRMINGHAM AL
900 AM CDT FRI MAY 26 2017

NOTE: "FAIR" INDICATES FEW OR NO CLOUDS BELOW 12,000 FEET
WITH NO SIGNIFICANT WEATHER AND/OR OBSTRUCTIONS TO VISIBILITY.

THE REMARK "TC" DENOTES TEMPERATURE IN DEGREES CELSIUS.

ALZ001>011-014-016>018-020-261500-
NORTH ALABAMA

CITY           SKY/WX    TMP DP  RH WIND       PRES   REMARKS
MUSCLE SHOALS  PTSUNNY   71  58  63 SW6       30.01R
HUNTSVILLE     PTSUNNY   68  58  70 S5        30.03R
DECATUR        PTSUNNY   69  55  60 S6        30.03R
HALEYVILLE     FAIR      69  59  70 SW6       30.04R
GADSDEN        SUNNY     66  58  75 VRB3      30.05R
$$

ALZ012-013-022-023-030>036-040>044-261500-
WEST CENTRAL ALABAMA

CITY           SKY/WX    TMP DP  RH WIND       PRES   REMARKS
TUSCALOOSA     SUNNY     69  60  73 SW3       30.03R
$$

ALZ015-024>027-033>036-040>044-261500-
CENTRAL ALABAMA

CITY           SKY/WX    TMP DP  RH WIND       PRES   REMARKS
BIRMINGHAM     MOSUNNY   73  54  51 S9        30.06R
MONTGOMERY     SUNNY     71  60  68 SW5       30.05R
SHELBY CO ARPT SUNNY     69  60  73 S6        30.04R
MAXWELL AFB    SUNNY     70  60  70 W3        30.04S
GREENVILLE     FAIR      73  61  65 SW6       30.04R
$$

ALZ019-021-028-029-037-038-045>048-261500-
EAST CENTRAL ALABAMA

CITY           SKY/WX    TMP DP  RH WIND       PRES   REMARKS
ANNISTON       SUNNY     67  57  70 CALM      30.05R
ALEXANDER CITY SUNNY     67  58  73 S3        30.06R
AUBURN         SUNNY     70  56  61 S8        30.08R
$$

ALZ051>064-261500-
SOUTHWEST ALABAMA

CITY           SKY/WX    TMP DP  RH WIND       PRES   REMARKS
MOBILE         SUNNY     77  62  59 S12       30.04R
BROOKLEY FIELD SUNNY     78  65  63 S8        30.05R
EVERGREEN      SUNNY     74  63  68 VRB6      30.05R
$$

ALZ049-050-065>069-261500-
SOUTHEAST ALABAMA

CITY           SKY/WX    TMP DP  RH WIND       PRES   REMARKS
DOTHAN         SUNNY     73  62  68 W6        30.10R
OZARK          SUNNY     72  63  73 S5        30.07R
TROY           SUNNY     70  63  78 S6        30.06S
EUFAULA        FAIR      75  58  55 VRB3      30.05S
$$



USA.gov is the U.S. government's official web portal to all federal, state and local government web resources and services.